Overview Statistics Trail Chart Weather Telemetry Raw packets
 

This is the latest recevied weather packets stored in our database for station/object N5ATR. If no packets are shown the sender has not sent any weather packets the latest 10 day(s).

<< 76 77 78 79 80 81 82 >>
Time Temp. Humidity Pressure Rain* Wind** Luminosity Snow
1788142670 23.89° C 40% 1021.9 hPa 0 mm - 0 W/m² -
1788142370 24.44° C 39% 1021.9 hPa 0 mm - 0 W/m² -
1788142067 24.44° C 39% 1021.8 hPa 0 mm - 0 W/m² -
1788141765 24.44° C 39% 1021.8 hPa 0 mm - 0 W/m² -
1788141461 24.44° C 38% 1021.5 hPa 0 mm - 0 W/m² -
1788141156 24.44° C 36% 1021.5 hPa 0 mm - 0 W/m² -
1788140852 25° C 34% 1021.5 hPa 0 mm - 0 W/m² -
1788140552 25° C 34% 1021.5 hPa 0 mm - 1 W/m² -
1788140248 25° C 33% 1021.4 hPa 0 mm - 1 W/m² -
1788139947 25° C 33% 1021.7 hPa 0 mm - 1 W/m² -
1788139642 25.56° C 32% 1021.5 hPa 0 mm - 2 W/m² -
1788139338 25.56° C 32% 1021.4 hPa 0 mm - 4 W/m² -
1788139036 25.56° C 31% 1021.5 hPa 0 mm - 6 W/m² -
1788138733 25.56° C 31% 1021.3 hPa 0 mm - 10 W/m² -
1788138428 26.11° C 31% 1021.2 hPa 0 mm - 15 W/m² -
1788138128 26.11° C 31% 1021.3 hPa 0 mm - 20 W/m² -
1788137823 26.11° C 31% 1021.4 hPa 0 mm - 24 W/m² -
1788137518 26.11° C 31% 1021.4 hPa 0 mm - 28 W/m² -
1788137214 26.67° C 31% 1021.3 hPa 0 mm - 34 W/m² -
1788136909 26.67° C 31% 1021.5 hPa 0 mm - 41 W/m² -
1788136606 26.67° C 31% 1021.4 hPa 0 mm - 47 W/m² -
1788136301 26.67° C 31% 1021.5 hPa 0 mm - 51 W/m² -
1788136000 26.67° C 30% 1021.7 hPa 0 mm - 54 W/m² -
1788135695 27.22° C 30% 1021.5 hPa 0 mm - 59 W/m² -
1788135391 27.22° C 30% 1021.7 hPa 0 mm - 65 W/m² -

* Rain latest hour (hover to see other rain measurements)
** Current wind speed in m/s (hover to see current wind gust speed)